GW5221 Weather Reports


time (UTC)temp
F
wind
direction
speed
knots
gust
knots
rain 1hr
in
rain 24hr
in
rain mn
in
humidity
%
barometer
mb
20260507043334 82 1 0.9 5.2 0.00 0.00 0.00 79 1019.5
20260507042830 82 344 0.0 2.6 0.00 0.00 0.00 79 1019.6
20260507042325 82 102 2.6 3.5 0.00 0.00 0.00 79 1019.9
20260507041823 82 9 0.9 6.1 0.00 0.00 0.00 79 1019.6
20260507041319 82 225 0.9 0.9 0.00 0.00 0.00 79 1020.0
20260507040816 82 347 0.0 3.5 0.00 0.00 0.00 79 1020.0
20260507040312 82 356 0.9 1.7 0.00 0.00 0.00 79 1019.9
20260507035808 82 31 2.6 3.5 0.00 0.00 0.00 79 1019.9
20260507035306 82 55 0.9 6.1 0.00 0.00 0.00 79 1019.9
20260507034802 82 80 3.5 7.0 0.00 0.00 0.00 79 1019.9
20260507034258 82 33 0.9 2.6 0.00 0.00 0.00 79 1019.9
20260507033757 82 355 1.7 3.5 0.00 0.00 0.00 79 1019.7
20260507033254 82 348 0.0 1.7 0.00 0.00 0.00 79 1019.9
20260507032751 82 355 0.9 2.6 0.00 0.00 0.00 79 1019.9
20260507032247 82 346 0.9 0.9 0.00 0.00 0.00 79 1020.1
20260507031743 82 348 0.9 5.2 0.00 0.00 0.00 79 1019.9
20260507031241 82 28 0.0 3.5 0.00 0.00 0.00 79 1020.1
20260507030737 82 6 1.7 1.7 0.00 0.00 0.00 79 1020.2
20260507030235 82 22 3.5 5.2 0.00 0.00 0.00 79 1020.1
20260507025732 82 40 3.5 6.1 0.00 0.00 0.00 80 1020.2
20260507025229 82 55 1.7 3.5 0.00 0.00 0.00 80 1020.0
20260507024727 82 229 0.9 2.6 0.00 0.00 0.00 80 1020.0
20260507024224 82 352 1.7 2.6 0.00 0.00 0.00 80 1019.9
20260507023719 82 342 0.9 1.7 0.00 0.00 0.00 80 1020.2
20260507023216 82 335 0.0 2.6 0.00 0.00 0.00 80 1020.2
20260507022714 82 262 0.9 1.7 0.00 0.00 0.00 80 1020.2
20260507022209 82 342 0.0 2.6 0.00 0.00 0.00 80 1020.1
20260507021706 82 352 0.9 1.7 0.00 0.00 0.00 80 1020.1
20260507021201 82 33 3.5 6.1 0.00 0.00 0.00 80 1019.8
20260507020700 82 300 1.7 5.2 0.00 0.00 0.00 80 1019.7
20260507020156 82 113 0.9 3.5 0.00 0.00 0.00 80 1019.7
20260507015654 82 90 0.9 5.2 0.00 0.00 0.00 80 1019.8
20260507015151 82 41 1.7 6.1 0.00 0.00 0.00 80 1019.7
20260507014647 82 32 2.6 3.5 0.00 0.00 0.00 80 1019.9
20260507014143 82 345 0.9 3.5 0.00 0.00 0.00 80 1019.6
20260507013641 82 88 1.7 5.2 0.00 0.00 0.00 80 1019.5
20260507013138 82 342 1.7 2.6 0.00 0.00 0.00 80 1019.4
20260507012635 82 33 0.9 2.6 0.00 0.00 0.00 81 1019.3
20260507012130 82 22 2.6 5.2 0.00 0.00 0.00 80 1019.2
20260507011629 82 69 1.7 6.1 0.00 0.00 0.00 80 1019.1
20260507011125 82 250 1.7 5.2 0.00 0.00 0.00 80 1018.9
20260507010620 82 119 4.3 8.7 0.00 0.00 0.00 80 1019.2
20260507010116 82 37 1.7 6.1 0.00 0.00 0.00 80 1018.8
20260507005613 82 97 1.7 7.0 0.00 0.00 0.00 80 1019.0
20260507005109 82 46 2.6 7.0 0.00 0.00 0.00 80 1018.7
20260507004606 82 39 2.6 5.2 0.00 0.00 0.00 80 1018.7
20260507004104 82 57 1.7 5.2 0.00 0.00 0.00 80 1018.6
20260507003600 82 350 2.6 3.5 0.00 0.00 0.00 80 1018.6
20260507003055 82 41 0.9 2.6 0.00 0.00 0.00 80 1018.4
20260507002552 82 61 2.6 7.0 0.00 0.00 0.00 80 1018.4
20260507002047 82 147 1.7 7.8 0.00 0.00 0.00 79 1018.5
20260507001544 82 345 1.7 8.7 0.00 0.00 0.00 80 1018.5
20260507001042 82 15 2.6 7.0 0.00 0.00 0.00 80 1018.4
20260507000538 82 73 1.7 7.0 0.00 0.00 0.00 80 1018.3
20260507000033 82 74 1.7 2.6 0.00 0.00 0.00 80 1018.3
20260506235531 82 352 2.6 5.2 0.00 0.00 0.00 79 1018.3
20260506235021 82 93 3.5 6.1 0.00 0.00 0.00 80 1018.2
20260506234519 82 85 2.6 7.8 0.00 0.00 0.00 80 1018.2
20260506234016 83 86 2.6 6.1 0.00 0.00 0.00 80 1018.1
20260506233513 83 335 1.7 9.6 0.00 0.00 0.00 79 1017.8
20260506233010 83 33 3.5 5.2 0.00 0.00 0.00 79 1017.9
20260506232506 83 2 0.0 6.1 0.00 0.00 0.00 79 1018.0
20260506232001 83 34 2.6 12.2 0.00 0.00 0.00 79 1017.7
20260506231458 83 34 2.6 7.8 0.00 0.00 0.00 79 1017.4
20260506230956 83 346 1.7 9.6 0.00 0.00 0.00 79 1017.5
20260506230452 83 66 2.6 7.0 0.00 0.00 0.00 79 1017.5
20260506225949 83 31 4.3 6.1 0.00 0.00 0.00 78 1017.7
20260506225447 83 54 1.7 5.2 0.00 0.00 0.00 79 1017.7
20260506224943 83 51 3.5 8.7 0.00 0.00 0.00 78 1017.4
20260506224440 83 77 4.3 8.7 0.00 0.00 0.00 78 1017.5
20260506223936 84 53 1.7 7.0 0.00 0.00 0.00 78 1017.2
20260506223432 84 45 3.5 6.1 0.00 0.00 0.00 77 1017.3
20260506222930 84 7 6.1 8.7 0.00 0.00 0.00 77 1017.1
20260506222426 84 23 1.7 7.8 0.00 0.00 0.00 76 1017.1
20260506221923 84 71 3.5 8.7 0.00 0.00 0.00 75 1017.2
20260506221420 85 58 1.7 7.0 0.00 0.00 0.00 75 1017.1
20260506220918 85 110 2.6 7.8 0.00 0.00 0.00 75 1016.8
20260506220414 85 20 3.5 5.2 0.00 0.00 0.00 74 1017.0
20260506215910 85 69 3.5 7.0 0.00 0.00 0.00 74 1017.0
20260506215406 85 93 2.6 8.7 0.00 0.00 0.00 74 1017.1
20260506214902 85 76 3.5 9.6 0.00 0.00 0.00 73 1017.1
20260506214359 85 19 3.5 7.8 0.00 0.00 0.00 73 1017.1
20260506213857 86 31 3.5 7.8 0.00 0.00 0.00 73 1017.1
20260506213354 86 87 2.6 5.2 0.00 0.00 0.00 72 1017.1
20260506212851 86 105 1.7 8.7 0.00 0.00 0.00 71 1016.9
20260506212347 86 359 3.5 6.1 0.00 0.00 0.00 71 1016.8
20260506211842 86 350 2.6 6.1 0.00 0.00 0.00 71 1016.9
20260506211338 87 69 1.7 6.1 0.00 0.00 0.00 70 1016.9
20260506210836 87 10 2.6 5.2 0.00 0.00 0.00 70 1017.0
20260506210332 87 50 1.7 3.5 0.00 0.00 0.00 71 1017.1
20260506205830 88 344 1.7 5.2 0.00 0.00 0.00 70 1017.2
20260506205325 88 8 0.9 5.2 0.00 0.00 0.00 70 1017.2
20260506204822 87 19 2.6 6.1 0.00 0.00 0.00 69 1017.1
20260506204320 88 1 0.9 11.3 0.00 0.00 0.00 69 1017.1
20260506203817 88 314 1.7 7.8 0.00 0.00 0.00 69 1017.4
20260506203314 88 80 3.5 7.0 0.00 0.00 0.00 68 1017.3
20260506202811 88 75 2.6 7.0 0.00 0.00 0.00 69 1017.5
20260506202308 88 14 0.9 6.1 0.00 0.00 0.00 69 1017.3
20260506201804 89 86 3.5 7.0 0.00 0.00 0.00 68 1017.4
20260506201302 89 292 1.7 2.6 0.00 0.00 0.00 66 1017.5
20260506200759 88 337 1.7 5.2 0.00 0.00 0.00 67 1017.5
20260506200255 88 65 4.3 7.0 0.00 0.00 0.00 67 1017.5
20260506195751 89 342 2.6 5.2 0.00 0.00 0.00 67 1017.6
20260506195247 90 126 3.5 11.3 0.00 0.00 0.00 65 1017.7
20260506194745 90 54 1.7 3.5 0.00 0.00 0.00 63 1017.4
20260506194241 90 356 0.9 6.1 0.00 0.00 0.00 64 1017.7
20260506193739 90 330 1.7 7.0 0.00 0.00 0.00 63 1017.6
20260506193236 89 357 1.7 7.0 0.00 0.00 0.00 65 1018.0
20260506192732 90 106 2.6 8.7 0.00 0.00 0.00 64 1017.6
20260506192229 89 242 0.9 6.1 0.00 0.00 0.00 65 1017.9
20260506191726 89 46 1.7 7.0 0.00 0.00 0.00 65 1017.9
20260506191222 88 6 1.7 6.1 0.00 0.00 0.00 67 1017.7
20260506190719 89 102 5.2 7.8 0.00 0.00 0.00 66 1017.8
20260506190216 89 53 2.6 6.1 0.00 0.00 0.00 66 1017.7
20260506185713 90 343 2.6 6.1 0.00 0.00 0.00 65 1017.8
20260506185209 90 0 1.7 5.2 0.00 0.00 0.00 64 1018.0
20260506184707 90 28 3.5 11.3 0.00 0.00 0.00 65 1018.2
20260506184204 90 315 0.9 5.2 0.00 0.00 0.00 64 1018.1
20260506183701 90 190 4.3 7.0 0.00 0.00 0.00 64 1018.2
20260506183156 90 346 1.7 6.1 0.00 0.00 0.00 64 1018.1
20260506182654 90 216 3.5 8.7 0.00 0.00 0.00 63 1018.3
20260506182152 91 42 3.5 9.6 0.00 0.00 0.00 63 1018.4
20260506181649 91 48 0.9 3.5 0.00 0.00 0.00 63 1018.4
20260506181146 91 0 1.7 5.2 0.00 0.00 0.00 64 1018.6
20260506180643 89 313 1.7 3.5 0.00 0.00 0.00 65 1018.6
20260506180139 89 105 1.7 3.5 0.00 0.00 0.00 64 1019.0
20260506175636 91 97 1.7 7.0 0.00 0.00 0.00 63 1019.0
20260506175132 91 110 1.7 5.2 0.00 0.00 0.00 62 1018.9
20260506174631 91 349 0.9 5.2 0.00 0.00 0.00 63 1019.1
20260506174127 91 356 1.7 8.7 0.00 0.00 0.00 63 1019.3
20260506173625 89 340 0.9 7.8 0.00 0.00 0.00 65 1019.3
20260506173121 90 350 2.6 7.8 0.00 0.00 0.00 65 1019.2
20260506172619 90 107 1.7 5.2 0.00 0.00 0.00 64 1019.4
20260506172115 90 29 3.5 6.1 0.00 0.00 0.00 64 1019.4
20260506171613 91 57 4.3 7.0 0.00 0.00 0.00 63 1019.7
20260506171111 91 265 3.5 6.1 0.00 0.00 0.00 61 1019.6
20260506170608 91 339 1.7 7.8 0.00 0.00 0.00 62 1019.8
20260506170105 91 333 1.7 12.2 0.00 0.00 0.00 63 1019.6
20260506165603 91 315 4.3 8.7 0.00 0.00 0.00 61 1020.0
20260506165059 91 340 2.6 7.8 0.00 0.00 0.00 62 1019.9
20260506164556 91 179 1.7 5.2 0.00 0.00 0.00 62 1020.0
20260506164053 90 285 2.6 8.7 0.00 0.00 0.00 64 1019.9
20260506163549 90 218 1.7 9.6 0.00 0.00 0.00 64 1020.1
20260506163046 90 356 1.7 7.0 0.00 0.00 0.00 64 1020.0
20260506162542 90 159 2.6 7.8 0.00 0.00 0.00 63 1020.2
20260506162039 90 357 1.7 11.3 0.00 0.00 0.00 63 1020.2
20260506161536 90 16 0.9 6.1 0.00 0.00 0.00 64 1020.2
20260506161033 90 322 4.3 7.0 0.00 0.00 0.00 63 1020.2
20260506160531 90 256 5.2 11.3 0.00 0.00 0.00 63 1020.4
20260506160028 91 225 5.2 7.0 0.00 0.00 0.00 63 1020.1
20260506155526 90 348 2.6 7.0 0.00 0.00 0.00 63 1020.5
20260506153657 90 318 1.7 5.2 0.00 0.00 0.00 64 1020.6
20260506153154 89 170 0.9 3.5 0.00 0.00 0.00 66 1020.6
20260506152651 89 222 2.6 6.1 0.00 0.00 0.00 66 1020.5
20260506152149 89 19 1.7 11.3 0.00 0.00 0.00 66 1020.8
20260506151648 89 79 2.6 7.8 0.00 0.00 0.00 65 1020.6
20260506151144 89 103 3.5 7.0 0.00 0.00 0.00 64 1020.8
20260506150641 90 216 4.3 6.1 0.00 0.00 0.00 64 1020.6
20260506150138 89 255 1.7 3.5 0.00 0.00 0.00 65 1020.7
20260506145635 89 339 0.9 8.7 0.00 0.00 0.00 65 1020.7
20260506145131 89 148 2.6 7.0 0.00 0.00 0.00 65 1020.8
20260506144629 90 129 3.5 8.7 0.00 0.00 0.00 64 1020.8
20260506144125 89 26 1.7 6.1 0.00 0.00 0.00 65 1020.7
20260506143623 89 300 3.5 7.0 0.00 0.00 0.00 65 1020.9
20260506143121 89 134 4.3 6.1 0.00 0.00 0.00 65 1020.8
20260506142619 89 344 1.7 6.1 0.00 0.00 0.00 65 1020.9
20260506142117 89 107 2.6 6.1 0.00 0.00 0.00 65 1020.9
20260506141614 89 306 1.7 5.2 0.00 0.00 0.00 66 1020.9
20260506141112 89 331 1.7 6.1 0.00 0.00 0.00 66 1020.8
20260506140610 88 348 2.6 5.2 0.00 0.00 0.00 66 1020.9
20260506140107 88 31 4.3 9.6 0.00 0.00 0.00 66 1020.8
20260506135603 89 27 2.6 7.0 0.00 0.00 0.00 66 1021.0
20260506135059 89 347 2.6 6.1 0.00 0.00 0.00 65 1020.8
20260506134556 88 290 3.5 7.0 0.00 0.00 0.00 67 1020.6
20260506134052 89 244 1.7 7.8 0.00 0.00 0.00 65 1020.8
20260506133549 88 317 0.9 6.1 0.00 0.00 0.00 66 1020.9
20260506133046 88 134 1.7 2.6 0.00 0.00 0.00 68 1020.8
20260506132544 87 128 2.6 6.1 0.00 0.00 0.00 68 1020.8
20260506132041 87 28 4.3 8.7 0.00 0.00 0.00 68 1020.8
20260506131538 87 177 3.5 6.1 0.00 0.00 0.00 70 1020.9
20260506131034 87 33 1.7 11.3 0.00 0.00 0.00 72 1020.8
20260506130531 86 355 1.7 5.2 0.00 0.00 0.00 72 1020.8
20260506130029 86 339 0.9 2.6 0.00 0.00 0.00 73 1021.0
20260506125527 86 223 2.6 5.2 0.00 0.00 0.00 73 1021.0
20260506125024 85 150 5.2 12.2 0.00 0.00 0.00 74 1020.8
20260506124522 85 263 2.6 7.8 0.00 0.00 0.00 73 1020.7
20260506124020 85 19 2.6 6.1 0.00 0.00 0.00 72 1020.8
20260506123517 85 69 4.3 7.0 0.00 0.00 0.00 72 1020.9
20260506123015 85 67 5.2 7.0 0.00 0.00 0.00 73 1020.7
20260506122512 85 154 3.5 5.2 0.00 0.00 0.00 73 1020.7
20260506122010 85 307 0.9 6.1 0.00 0.00 0.00 73 1020.6
20260506121507 85 345 1.7 6.1 0.00 0.00 0.00 74 1020.7
20260506121003 84 328 2.6 5.2 0.00 0.00 0.00 76 1020.7
20260506120501 84 84 3.5 5.2 0.00 0.00 0.00 77 1020.4
20260506115958 83 263 0.9 3.5 0.00 0.00 0.00 78 1020.4
20260506115456 84 158 3.5 6.1 0.00 0.00 0.00 77 1020.5
20260506114954 84 345 0.0 2.6 0.00 0.00 0.00 77 1020.3
20260506114451 84 346 0.9 2.6 0.00 0.00 0.00 76 1020.3
20260506113950 84 348 0.0 3.5 0.00 0.00 0.00 76 1020.3
20260506113447 84 324 2.6 5.2 0.00 0.00 0.00 77 1020.3
20260506112943 83 287 0.9 3.5 0.00 0.00 0.00 78 1020.4
20260506112441 83 79 1.7 7.8 0.00 0.00 0.00 78 1020.0
20260506111938 83 348 1.7 6.1 0.00 0.00 0.00 78 1020.0
20260506111437 82 249 3.5 3.5 0.00 0.00 0.00 79 1020.0
20260506110933 82 243 1.7 5.2 0.00 0.00 0.00 80 1019.9
20260506110431 82 11 0.9 2.6 0.00 0.00 0.00 81 1019.8
20260506105927 81 125 1.7 2.6 0.00 0.00 0.00 81 1019.6
20260506105424 81 16 0.9 6.1 0.00 0.00 0.00 82 1019.7
20260506104921 81 236 1.7 5.2 0.00 0.00 0.00 82 1019.8
20260506104419 81 315 0.9 3.5 0.00 0.00 0.00 82 1019.7
20260506103917 81 357 0.9 1.7 0.00 0.00 0.00 82 1019.7
20260506103414 81 147 1.7 2.6 0.00 0.00 0.00 82 1019.8
20260506102911 81 16 0.9 6.1 0.00 0.00 0.00 82 1019.7
20260506102409 80 357 0.9 1.7 0.00 0.00 0.00 83 1019.6
20260506101906 80 30 0.9 6.1 0.00 0.00 0.00 83 1019.4
20260506101402 80 353 1.7 2.6 0.00 0.00 0.00 83 1019.5
20260506100859 80 26 2.6 5.2 0.00 0.00 0.00 82 1019.4
20260506100358 80 210 2.6 5.2 0.00 0.00 0.00 82 1019.3
20260506095856 80 240 0.9 2.6 0.00 0.00 0.00 82 1019.4
20260506095354 80 280 0.0 1.7 0.00 0.00 0.00 82 1019.3
20260506094850 80 343 0.9 3.5 0.00 0.00 0.00 82 1019.1
20260506094349 80 0 2.6 6.1 0.00 0.00 0.00 82 1019.1
20260506093846 80 62 1.7 5.2 0.00 0.00 0.00 82 1019.3
20260506093343 80 350 0.9 5.2 0.00 0.00 0.00 82 1019.1
20260506092841 80 76 1.7 2.6 0.00 0.00 0.00 82 1019.2
20260506092339 80 341 0.9 3.5 0.00 0.00 0.00 82 1019.0
20260506091835 80 274 0.0 2.6 0.00 0.00 0.00 82 1019.1
20260506091333 80 330 0.9 2.6 0.00 0.00 0.00 82 1019.2
20260506090830 80 307 0.9 3.5 0.00 0.00 0.00 82 1019.0
20260506090328 80 49 0.9 1.7 0.00 0.00 0.00 82 1019.0
20260506085824 80 67 1.7 2.6 0.00 0.00 0.00 81 1018.9
20260506085320 80 244 1.7 2.6 0.00 0.00 0.00 81 1019.1
20260506084817 80 323 0.9 1.7 0.00 0.00 0.00 81 1019.0
20260506084314 80 300 1.7 2.6 0.00 0.00 0.00 80 1019.0
20260506083810 80 349 0.9 1.7 0.00 0.00 0.00 80 1019.0
20260506083308 80 78 3.5 5.2 0.00 0.00 0.00 80 1018.8
20260506082806 80 66 0.9 3.5 0.00 0.00 0.00 80 1019.0
20260506082304 80 333 1.7 6.1 0.00 0.00 0.00 80 1018.9
20260506081758 80 208 0.9 2.6 0.00 0.00 0.00 80 1019.0
20260506081256 80 51 0.9 2.6 0.00 0.00 0.00 81 1018.9
20260506080754 80 336 2.6 7.0 0.00 0.00 0.00 81 1018.7
20260506080250 80 104 1.7 3.5 0.00 0.00 0.00 81 1018.8
20260506073234 80 247 0.9 3.5 0.00 0.00 0.00 81 1018.6
20260506072731 80 12 1.7 5.2 0.00 0.00 0.00 81 1018.4
20260506072228 80 1 0.9 6.1 0.00 0.00 0.00 81 1018.6
20260506071726 80 287 1.7 2.6 0.00 0.00 0.00 81 1018.6
20260506071224 80 80 3.5 5.2 0.00 0.00 0.00 81 1018.7
20260506070720 80 330 0.9 5.2 0.00 0.00 0.00 81 1018.7
20260506070217 80 25 0.9 2.6 0.00 0.00 0.00 81 1018.8
20260506062154 80 17 1.7 6.1 0.00 0.00 0.00 80 1018.7
20260506061650 80 332 0.9 5.2 0.00 0.00 0.00 80 1019.1
20260506061148 80 98 2.6 2.6 0.00 0.00 0.00 80 1018.8
20260506060646 80 37 3.5 6.1 0.00 0.00 0.00 80 1019.1
20260506060143 81 110 2.6 5.2 0.00 0.00 0.00 80 1019.1
20260506051115 81 5 0.9 6.1 0.00 0.00 0.00 80 1019.9
20260506050613 81 352 1.7 3.5 0.00 0.00 0.00 80 1019.9
20260506050110 81 324 1.7 3.5 0.00 0.00 0.00 80 1020.0
20260506045103 81 206 1.7 3.5 0.00 0.00 0.00 80 1020.0
20260506044601 81 85 1.7 3.5 0.00 0.00 0.00 80 1019.9
20260506044058 81 207 2.6 6.1 0.00 0.00 0.00 80 1019.8
20260506043555 81 64 1.7 2.6 0.00 0.00 0.00 80 1020.0